Palmdale, CA

4:43 PM PST on February 13, 2016 (GMT -0800)
Palmdale Af Plant 42

Weather History for KPMD - June, 2013

Change the Weather History Date:

Wednesday, June 12, 2013

  Actual Average Record
Temperature  
Mean Temperature 79 °F 74 °F  
Max Temperature 92 °F 90 °F 105 °F (1940)
Min Temperature 65 °F 58 °F 40 °F (1952)
Degree Days  
Heating Degree Days 0 0  
Month to date heating degree days 0 6  
Since 1 June heating degree days 0 6  
Since 1 July heating degree days 2547 2924  
Cooling Degree Days 14 9  
Month to date cooling degree days 182 101  
Year to date cooling degree days 413 271  
Since 1 June cooling degree days 182 101  
Growing Degree Days 28 (Base 50)    
Moisture  
Dew Point 36 °F    
Average Humidity 22    
Maximum Humidity 33    
Minimum Humidity 10    
Precipitation  
Precipitation 0.00 in 0.00 in 0.18 in (1963)
Month to date precipitation 0.00 0.08  
Year to date precipitation 0.71 5.31  
Since 1 July precipitation 1.00  
Snow  
Snow 0.00 in - 0.00 in (1973)
Month to date snowfall 0.0  
Since 1 June snowfall 0.0  
Since 1 July snowfall 0.0  
Snow Depth 0.00 in    
Sea Level Pressure  
Sea Level Pressure 29.87 in    
Wind  
Wind Speed 14 mph (SW)    
Max Wind Speed 31 mph    
Max Gust Speed 36 mph    
Visibility 10 miles    
Events      
T = Trace of Precipitation, MM = Missing Value Source: NWS Daily Summary

Daily Weather History Graph

Daily Weather History Graph

Search for Another Location

Airport or City:

Trip Planner

Search our weather history database for the weather conditions in past years. The results will help you decide how hot, cold, wet, or windy it might be!

Date:

Astronomy

Jun. 12, 2013 Rise Set
Actual Time 5:38 AM PDT 8:05 PM PDT
Civil Twilight 5:09 AM PDT 8:35 PM PDT
Nautical Twilight 4:33 AM PDT 9:11 PM PDT
Astronomical Twilight 3:53 AM PDT 9:51 PM PDT
Moon 9:15 AM PDT (6/12) 10:52 PM PDT (6/12)
Length of Visible Light 15h 25m
Length of Day
14h 27m
Waxing Crescent, 15% of the Moon is Illuminated
Jun 12
Waxing Crescent
Jun 16
First Quarter
Jun 23
Full
Jun 29
Last Quarter
Jul 8
New

Hourly Weather History & Observations

Time (PDT) Temp. Dew Point Humidity Pressure Visibility Wind Dir Wind Speed Gust Speed Precip Events Conditions
12:53 AM 72.0 °F 28.9 °F 20% 29.86 in 10.0 mi Calm Calm - N/A   Clear
1:53 AM 68.0 °F 37.0 °F 32% 29.87 in 10.0 mi Calm Calm - N/A   Clear
2:53 AM 66.9 °F 32.0 °F 27% 29.86 in 10.0 mi Calm Calm - N/A   Clear
3:53 AM 68.0 °F 34.0 °F 28% 29.86 in 10.0 mi South 3.5 mph - N/A   Clear
4:53 AM 66.0 °F 30.9 °F 27% 29.86 in 10.0 mi South 5.8 mph - N/A   Clear
5:53 AM 70.0 °F 35.1 °F 28% 29.87 in 10.0 mi Calm Calm - N/A   Clear
6:53 AM 70.0 °F 33.1 °F 26% 29.88 in 10.0 mi Calm Calm - N/A   Clear
7:53 AM 80.1 °F 35.1 °F 20% 29.87 in 10.0 mi NW 3.5 mph - N/A   Clear
8:53 AM 80.1 °F 37.9 °F 22% 29.88 in 10.0 mi North 4.6 mph - N/A   Clear
9:53 AM 88.0 °F 25.0 °F 10% 29.87 in 10.0 mi WSW 12.7 mph 19.6 mph N/A   Clear
10:53 AM 90.0 °F 26.1 °F 10% 29.86 in 10.0 mi SW 21.9 mph - N/A   Clear
11:53 AM 90.0 °F 33.1 °F 13% 29.88 in 10.0 mi SW 18.4 mph 27.6 mph N/A   Clear
12:53 PM 91.0 °F 39.0 °F 16% 29.87 in 10.0 mi SW 23.0 mph 28.8 mph N/A   Clear
1:53 PM 90.0 °F 42.1 °F 19% 29.87 in 10.0 mi SW 20.7 mph 29.9 mph N/A   Clear
2:53 PM 90.0 °F 39.0 °F 17% 29.87 in 10.0 mi SW 24.2 mph 28.8 mph N/A   Clear
3:53 PM 90.0 °F 35.1 °F 14% 29.86 in 10.0 mi SW 23.0 mph - N/A   Clear
4:53 PM 89.1 °F 36.0 °F 15% 29.85 in 10.0 mi SW 28.8 mph 32.2 mph N/A   Clear
5:53 PM 86.0 °F 34.0 °F 16% 29.85 in 10.0 mi SW 23.0 mph 28.8 mph N/A   Clear
6:53 PM 81.0 °F 42.1 °F 25% 29.87 in 10.0 mi WSW 21.9 mph - N/A   Clear
7:53 PM 78.1 °F 42.1 °F 28% 29.87 in 10.0 mi SW 19.6 mph - N/A   Clear
8:53 PM 75.9 °F 35.1 °F 23% 29.89 in 10.0 mi SW 15.0 mph - N/A   Clear
9:53 PM 75.0 °F 39.9 °F 28% 29.89 in 10.0 mi SW 16.1 mph - N/A   Clear
10:53 PM 73.0 °F 43.0 °F 34% 29.90 in 10.0 mi SW 16.1 mph - N/A   Clear
11:53 PM 73.0 °F 42.1 °F 33% 29.91 in 10.0 mi SW 10.4 mph - N/A   Clear